EW7398 Weather Reports


Display with metric or nautical units.
time (UTC)temp
F
wind
direction
speed
MPH
gust
MPH
rain 1hr
in
rain 24hr
in
rain mn
in
humidity
%
barometer
mb
20260906203050 88 272 2.0 10.0 0.00 0.00 0.00 33 1006.6
20260906201526 87 324 4.0 11.0 0.00 0.00 0.00 33 1006.7
20260906200107 86 286 5.0 10.0 0.00 0.00 0.00 35 1006.8
20260906194522 86 313 2.0 10.0 0.00 0.00 0.00 35 1007.0
20260906193008 86 331 4.0 11.0 0.00 0.00 0.00 34 1007.2
20260906191604 86 46 3.0 8.0 0.00 0.00 0.00 34 1007.3
20260906190011 85 95 3.0 7.0 0.00 0.00 0.00 34 1007.7
20260906184548 86 318 3.0 9.0 0.00 0.00 0.00 35 1008.0
20260906183032 85 274 5.0 10.0 0.00 0.00 0.00 36 1008.3
20260906181511 85 305 4.0 9.0 0.00 0.00 0.00 35 1008.4
20260906180017 84 289 4.0 9.0 0.00 0.00 0.00 36 1008.6
20260906174554 82 313 2.0 9.0 0.00 0.00 0.00 38 1008.8
20260906173032 81 306 5.0 10.0 0.00 0.00 0.00 40 1009.0
20260906171510 80 271 4.0 9.0 0.00 0.00 0.00 41 1009.1
20260906170053 80 351 3.0 10.0 0.00 0.00 0.00 42 1009.1
20260906164600 79 329 3.0 8.0 0.00 0.00 0.00 42 1009.2
20260906164508 79 10 3.0 8.0 0.00 0.00 0.00 42 1009.2
20260906163053 78 309 4.0 9.0 0.00 0.00 0.00 43 1009.1
20260906161529 78 337 5.0 10.0 0.00 0.00 0.00 42 1009.1
20260906160106 77 346 5.0 10.0 0.00 0.00 0.00 42 1009.3
20260906154529 76 348 6.0 12.0 0.00 0.00 0.00 42 1009.4
20260906153006 76 23 4.0 8.0 0.00 0.00 0.00 43 1009.4
20260906151544 74 323 3.0 5.0 0.00 0.00 0.00 47 1009.4
20260906150118 71 153 1.0 3.0 0.00 0.00 0.00 54 1009.4
20260906144533 68 151 0.0 2.0 0.00 0.00 0.00 61 1009.6
20260906143009 67 360 0.0 0.0 0.00 0.00 0.00 65 1009.6
20260906141547 66 360 0.0 0.0 0.00 0.00 0.00 68 1009.4
20260906140043 65 121 0.0 1.0 0.00 0.00 0.00 69 1009.3
20260906134604 65 154 0.0 1.0 0.00 0.00 0.00 68 1009.1
20260906133038 65 154 1.0 2.0 0.00 0.00 0.00 68 1009.0
20260906131512 65 155 0.0 0.0 0.00 0.00 0.00 68 1008.8
20260906130107 65 160 0.0 0.0 0.00 0.00 0.00 68 1008.6
20260906124559 66 176 0.0 0.0 0.00 0.00 0.00 68 1008.4
20260906124507 66 175 0.0 0.0 0.00 0.00 0.00 68 1008.4
20260906123039 66 175 1.0 2.0 0.00 0.00 0.00 68 1008.5
20260906121534 66 180 0.0 1.0 0.00 0.00 0.00 68 1008.7
20260906120001 66 197 0.0 0.0 0.00 0.00 0.00 67 1008.7
20260906114542 66 182 0.0 1.0 0.00 0.00 0.00 67 1008.8
20260906113029 66 178 0.0 1.0 0.00 0.00 0.00 67 1008.5
20260906111522 66 183 0.0 0.0 0.00 0.00 0.00 68 1008.6
20260906110051 66 180 0.0 0.0 0.00 0.00 0.00 67 1008.6
20260906104514 66 180 0.0 0.0 0.00 0.00 0.00 67 1008.6
20260906103003 66 179 0.0 0.0 0.00 0.00 0.00 65 1008.5
20260906101541 66 175 0.0 1.0 0.00 0.00 0.00 66 1008.6
20260906100009 67 183 0.0 0.0 0.00 0.00 0.00 66 1008.5
20260906094551 67 195 0.0 0.0 0.00 0.00 0.00 65 1008.4
20260906093028 67 186 0.0 0.0 0.00 0.00 0.00 64 1008.5
20260906091511 67 187 0.0 1.0 0.00 0.00 0.00 64 1008.6
20260906090106 67 182 0.0 0.0 0.00 0.00 0.00 64 1008.7
20260906084516 68 176 0.0 3.0 0.00 0.00 0.00 64 1008.6
20260906083010 68 172 0.0 0.0 0.00 0.00 0.00 64 1008.7
20260906081547 68 169 0.0 2.0 0.00 0.00 0.00 65 1008.9
20260906080034 68 180 1.0 3.0 0.00 0.00 0.00 65 1008.9
20260906074508 69 190 0.0 0.0 0.00 0.00 0.00 63 1008.9
20260906073045 69 187 0.0 1.0 0.00 0.00 0.00 63 1009.0
20260906071521 69 186 0.0 2.0 0.00 0.00 0.00 62 1009.0
20260906070111 69 189 0.0 3.0 0.00 0.00 0.00 62 1009.3
20260906064528 69 182 1.0 2.0 0.00 0.00 0.00 62 1009.1
20260906063059 70 187 0.0 0.0 0.00 0.00 0.00 62 1009.0
20260906063002 70 186 0.0 0.0 0.00 0.00 0.00 62 1009.1
20260906061543 70 186 0.0 0.0 0.00 0.00 0.00 61 1009.2
20260906060001 70 169 0.0 0.0 0.00 0.00 0.00 59 1009.6
20260906054548 71 165 1.0 3.0 0.00 0.00 0.00 59 1009.4
20260906053032 71 163 2.0 4.0 0.00 0.00 0.00 59 1009.5
20260906051505 71 165 2.0 3.0 0.00 0.00 0.00 58 1009.6
20260906050112 72 165 2.0 3.0 0.00 0.00 0.00 58 1009.6
20260906044515 72 166 0.0 1.0 0.00 0.00 0.00 57 1009.7
20260906043009 72 165 3.0 5.0 0.00 0.00 0.00 56 1009.4
20260906041545 73 166 2.0 5.0 0.00 0.00 0.00 55 1009.4
20260906040001 73 164 2.0 5.0 0.00 0.00 0.00 56 1009.4
20260906034505 73 165 1.0 4.0 0.00 0.00 0.00 55 1009.2
20260906033045 74 165 3.0 5.0 0.00 0.00 0.00 54 1009.1
20260906031542 74 167 1.0 4.0 0.00 0.00 0.00 53 1009.1
20260906030106 75 174 1.0 5.0 0.00 0.00 0.00 52 1009.0
20260906024538 76 360 2.0 4.0 0.00 0.00 0.00 52 1008.8
20260906023008 76 360 0.0 1.0 0.00 0.00 0.00 46 1008.7
20260906021547 76 360 0.0 2.0 0.00 0.00 0.00 47 1008.5
20260906020055 77 360 1.0 3.0 0.00 0.00 0.00 46 1008.6
20260906014557 77 360 1.0 4.0 0.00 0.00 0.00 46 1008.7
20260906013049 78 360 2.0 6.0 0.00 0.00 0.00 45 1008.8
20260906011525 78 14 4.0 9.0 0.00 0.00 0.00 44 1008.9
20260906010114 78 12 5.0 11.0 0.00 0.00 0.00 42 1008.9
20260906004536 79 14 7.0 12.0 0.00 0.00 0.00 45 1009.0
20260906003015 80 200 7.0 15.0 0.00 0.00 0.00 43 1008.9
20260906001505 80 229 8.0 15.0 0.00 0.00 0.00 42 1008.8
20260906000052 80 15 7.0 14.0 0.00 0.00 0.00 42 1008.9
20260905234557 80 14 6.0 13.0 0.00 0.00 0.00 42 1008.7
20260905233051 80 15 6.0 12.0 0.00 0.00 0.00 41 1008.8
20260905231537 79 202 6.0 10.0 0.00 0.00 0.00 44 1008.7
20260905230003 79 360 6.0 13.0 0.00 0.00 0.00 46 1008.9
20260905224537 79 360 8.0 18.0 0.00 0.00 0.00 47 1009.0
20260905223022 81 360 10.0 18.0 0.00 0.00 0.00 43 1009.0
20260905221507 83 22 9.0 13.0 0.00 0.00 0.00 38 1008.9
20260905220101 84 226 4.0 11.0 0.00 0.00 0.00 36 1008.8
20260905214516 85 225 9.0 15.0 0.00 0.00 0.00 35 1008.7
20260905213056 86 221 10.0 17.0 0.00 0.00 0.00 34 1009.0
20260905211540 86 186 6.0 16.0 0.00 0.00 0.00 33 1008.9
20260905210120 87 202 6.0 14.0 0.00 0.00 0.00 32 1009.0
20260905204532 87 180 6.0 10.0 0.00 0.00 0.00 31 1009.1